TimeEST,TemperatureF,Dew PointF,Humidity,Sea Level PressureIn,VisibilityMPH,Wind Direction,Wind SpeedMPH,Gust SpeedMPH,PrecipitationIn,Events,Conditions,WindDirDegrees,DateUTC
12:56 AM,50.0,34.0,54,30.27,10.0,NE,8.1,18.4,N/A,,Overcast,50,2012-11-15 05:56:00
1:56 AM,50.0,35.1,57,30.25,10.0,NE,8.1,-,N/A,,Overcast,40,2012-11-15 06:56:00
2:56 AM,46.0,39.0,76,30.31,5.0,WNW,10.4,-,0.01,Rain,Rain,290,2012-11-15 07:56:00
3:07 AM,44.6,41.0,87,30.32,1.8,West,13.8,-,0.08,Rain,Heavy Rain,280,2012-11-15 08:07:00
3:13 AM,44.6,41.0,87,30.26,2.0,North,10.4,-,0.12,Rain-Thunderstorm,Heavy Thunderstorms and Rain,10,2012-11-15 08:13:00
3:30 AM,44.6,41.0,87,30.26,5.0,North,9.2,-,0.19,Rain-Thunderstorm,Light Thunderstorms and Rain,360,2012-11-15 08:30:00
3:40 AM,44.6,41.0,87,30.26,4.0,NNW,8.1,16.1,0.21,Rain-Thunderstorm,Thunderstorms and Rain,340,2012-11-15 08:40:00
3:56 AM,44.1,39.9,85,30.31,4.0,NW,12.7,23.0,0.24,Rain-Thunderstorm,Thunderstorms and Rain,310,2012-11-15 08:56:00
4:02 AM,42.8,39.2,87,30.30,2.0,NW,15.0,20.7,0.07,Rain-Thunderstorm,Heavy Thunderstorms and Rain,310,2012-11-15 09:02:00
4:20 AM,42.8,39.2,87,30.26,2.0,North,12.7,25.3,0.29,Rain-Thunderstorm,Thunderstorms and Rain,360,2012-11-15 09:20:00
4:56 AM,43.0,39.9,89,30.26,3.0,NNE,11.5,-,0.44,Rain,Heavy Rain,30,2012-11-15 09:56:00
5:24 AM,42.8,39.2,87,30.26,3.0,Variable,4.6,-,0.14,Rain-Thunderstorm,Heavy Thunderstorms and Rain,0,2012-11-15 10:24:00
5:56 AM,43.0,39.9,89,30.28,3.0,Variable,3.5,-,0.29,Rain-Thunderstorm,Heavy Thunderstorms and Rain,0,2012-11-15 10:56:00
6:49 AM,42.8,39.2,87,30.26,3.0,Variable,6.9,-,0.26,Rain,Heavy Rain,0,2012-11-15 11:49:00
6:56 AM,42.1,39.9,92,30.27,4.0,North,4.6,-,0.28,Rain,Rain,10,2012-11-15 11:56:00
7:56 AM,42.1,39.9,92,30.27,3.0,North,5.8,-,0.09,Rain,Rain,360,2012-11-15 12:56:00
8:56 AM,43.0,39.9,89,30.29,8.0,North,5.8,-,0.01,,Overcast,10,2012-11-15 13:56:00
9:56 AM,44.1,39.9,85,30.29,6.0,North,8.1,-,N/A,,Overcast,10,2012-11-15 14:56:00
10:56 AM,44.1,39.9,85,30.30,6.0,NNW,8.1,-,N/A,,Overcast,340,2012-11-15 15:56:00
11:56 AM,44.1,39.9,85,30.28,6.0,North,10.4,-,N/A,,Overcast,10,2012-11-15 16:56:00
12:56 PM,45.0,39.0,80,30.27,6.0,North,9.2,-,N/A,,Haze,10,2012-11-15 17:56:00
1:05 PM,44.6,39.2,81,30.26,8.0,North,6.9,-,N/A,,Overcast,360,2012-11-15 18:05:00
1:56 PM,46.9,39.9,77,30.25,9.0,North,8.1,-,N/A,,Overcast,10,2012-11-15 18:56:00
2:56 PM,48.0,39.9,74,30.24,10.0,NNE,5.8,-,N/A,,Overcast,30,2012-11-15 19:56:00
3:56 PM,50.0,39.9,68,30.24,10.0,NE,4.6,-,N/A,,Mostly Cloudy,40,2012-11-15 20:56:00
4:56 PM,50.0,41.0,71,30.24,10.0,Calm,Calm,-,N/A,,Scattered Clouds,0,2012-11-15 21:56:00
5:56 PM,48.0,41.0,77,30.24,10.0,Calm,Calm,-,N/A,,Scattered Clouds,0,2012-11-15 22:56:00
6:56 PM,48.9,41.0,74,30.25,10.0,Calm,Calm,-,N/A,,Mostly Cloudy,0,2012-11-15 23:56:00
7:56 PM,48.0,39.9,74,30.26,10.0,NNE,8.1,-,N/A,,Mostly Cloudy,20,2012-11-16 00:56:00
8:56 PM,48.0,39.9,74,30.28,10.0,North,6.9,-,N/A,,Overcast,10,2012-11-16 01:56:00
9:56 PM,46.9,39.9,77,30.27,10.0,North,4.6,-,N/A,,Overcast,10,2012-11-16 02:56:00
10:56 PM,46.9,37.9,71,30.27,10.0,NNW,3.5,-,N/A,,Overcast,340,2012-11-16 03:56:00
11:56 PM,46.0,37.9,73,30.27,10.0,North,4.6,-,N/A,,Overcast,360,2012-11-16 04:56:00